This is the latest recevied weather packets stored in our database for station/object KJ5IIV. If no packets are shown the sender has not sent any weather packets the latest 10 day(s).
| Time | Temp. | Humidity | Pressure | Rain* | Wind** | Luminosity | Snow |
|---|---|---|---|---|---|---|---|
| 1777679468 | 15° C | 81% | 1015.5 hPa | 0 mm | - | 45 W/m² | - |
| 1777679163 | 15° C | 80% | 1015.7 hPa | 0 mm | - | 63 W/m² | - |
| 1777678861 | 15° C | 80% | 1015.8 hPa | 0 mm | - | 85 W/m² | - |
| 1777678559 | 15.56° C | 78% | 1015.9 hPa | 0 mm | - | 54 W/m² | - |
| 1777678256 | 15.56° C | 79% | 1015.7 hPa | 0 mm | - | 61 W/m² | - |
| 1777677952 | 15° C | 80% | 1015.7 hPa | 0 mm | - | 89 W/m² | - |
| 1777677649 | 15° C | 81% | 1015.3 hPa | 0 mm | - | 126 W/m² | - |
| 1777677347 | 15° C | 82% | 1015.2 hPa | 0 mm | - | 59 W/m² | - |
| 1777677045 | 15° C | 81% | 1015.3 hPa | 0 mm | - | 20 W/m² | - |
| 1777676744 | 15° C | 78% | 1015.7 hPa | 0 mm | - | 18 W/m² | - |
| 1777676441 | 15.56° C | 77% | 1015.9 hPa | 0 mm | - | 23 W/m² | - |
| 1777676138 | 15.56° C | 76% | 1015.4 hPa | 0 mm | - | 31 W/m² | - |
| 1777675834 | 15.56° C | 76% | 1015.4 hPa | 0 mm | - | 40 W/m² | - |
| 1777675532 | 15.56° C | 77% | 1015.4 hPa | 0 mm | - | 38 W/m² | - |
| 1777675229 | 15.56° C | 76% | 1015.1 hPa | 0 mm | - | 50 W/m² | - |
| 1777674925 | 15.56° C | 75% | 1014.7 hPa | 0 mm | - | 85 W/m² | - |
| 1777674622 | 15.56° C | 74% | 1014.9 hPa | 0 mm | - | 122 W/m² | - |
| 1777674321 | 15.56° C | 76% | 1014.8 hPa | 0 mm | - | 97 W/m² | - |
| 1777674016 | 15.56° C | 73% | 1014.8 hPa | 0 mm | - | 74 W/m² | - |
| 1777673711 | 15.56° C | 73% | 1014.8 hPa | 0 mm | - | 70 W/m² | - |
| 1777673409 | 16.11° C | 74% | 1014.6 hPa | 0 mm | - | 74 W/m² | - |
| 1777673107 | 16.11° C | 74% | 1014.2 hPa | 0 mm | - | 114 W/m² | - |
| 1777672803 | 16.11° C | 72% | 1013.9 hPa | 0 mm | - | 108 W/m² | - |
| 1777672499 | 16.11° C | 73% | 1013.7 hPa | 0 mm | - | 150 W/m² | - |
| 1777672195 | 16.11° C | 72% | 1013.7 hPa | 0 mm | - | 146 W/m² | - |
* Rain latest hour (hover to see other rain measurements)
** Current wind speed in m/s (hover to see current wind gust speed)